| time (UTC) | temp C | wind direction | speed KPH | gust KPH | rain 1hr cm | rain 24hr cm | rain mn cm | humidity % | barometer mb |
| 20260504100424 | 0 | 323 | 0.0 | 0.0 | 0.00 | 0.00 | 0.00 | 96 | 1012.8 |
| 20260504081817 | 0 | 286 | 0.0 | 0.0 | 0.00 | 0.00 | 0.00 | 95 | 1013.1 |
| 20260504081314 | 0 | 295 | 0.0 | 0.0 | 0.00 | 0.00 | 0.00 | 95 | 1013.2 |
| 20260504080810 | 0 | 344 | 0.0 | 0.0 | 0.00 | 0.00 | 0.00 | 94 | 1013.2 |
| 20260504080307 | 0 | 293 | 0.0 | 0.0 | 0.00 | 0.00 | 0.00 | 95 | 1013.0 |
| 20260504070235 | 1 | 5 | 0.0 | 0.0 | 0.00 | 0.00 | 0.00 | 94 | 1013.3 |
| 20260504060155 | 1 | 274 | 0.0 | 0.0 | 0.00 | 0.00 | 0.00 | 92 | 1013.1 |
| 20260504050623 | 2 | 342 | 0.0 | 0.0 | 0.00 | 0.00 | 0.00 | 90 | 1013.3 |
| 20260504050120 | 2 | 324 | 0.0 | 0.0 | 0.00 | 0.00 | 0.00 | 89 | 1013.4 |
| 20260504045617 | 2 | 302 | 0.0 | 0.0 | 0.00 | 0.00 | 0.00 | 89 | 1013.2 |
| 20260504045112 | 2 | 345 | 0.0 | 0.0 | 0.00 | 0.00 | 0.00 | 88 | 1013.3 |
| 20260504044610 | 2 | 306 | 0.0 | 0.0 | 0.00 | 0.00 | 0.00 | 87 | 1013.1 |
| 20260504044107 | 2 | 309 | 0.0 | 0.0 | 0.00 | 0.00 | 0.00 | 87 | 1013.1 |
| 20260504043604 | 2 | 263 | 0.0 | 0.0 | 0.00 | 0.00 | 0.00 | 87 | 1013.3 |
| 20260504043101 | 3 | 301 | 0.0 | 1.6 | 0.00 | 0.00 | 0.00 | 87 | 1013.2 |
| 20260504042558 | 3 | 287 | 0.0 | 0.0 | 0.00 | 0.00 | 0.00 | 87 | 1013.3 |
| 20260504042055 | 3 | 278 | 0.0 | 0.0 | 0.00 | 0.00 | 0.00 | 87 | 1013.2 |
| 20260504041550 | 3 | 255 | 0.0 | 0.0 | 0.00 | 0.00 | 0.00 | 86 | 1013.1 |
| 20260504041047 | 3 | 276 | 0.0 | 0.0 | 0.00 | 0.00 | 0.00 | 86 | 1013.3 |
| 20260504040545 | 3 | 297 | 0.0 | 0.0 | 0.00 | 0.00 | 0.00 | 85 | 1013.3 |
| 20260504040041 | 3 | 246 | 0.0 | 1.6 | 0.00 | 0.00 | 0.00 | 85 | 1013.2 |
| 20260504035538 | 3 | 269 | 0.0 | 0.0 | 0.00 | 0.00 | 0.00 | 84 | 1013.2 |
| 20260504035034 | 3 | 270 | 0.0 | 0.0 | 0.00 | 0.00 | 0.00 | 84 | 1013.2 |
| 20260504034533 | 3 | 295 | 0.0 | 0.0 | 0.00 | 0.00 | 0.00 | 84 | 1013.3 |
| 20260504034029 | 3 | 290 | 0.0 | 0.0 | 0.00 | 0.00 | 0.00 | 83 | 1013.1 |
| 20260504033527 | 3 | 268 | 0.0 | 0.0 | 0.00 | 0.00 | 0.00 | 81 | 1013.0 |
| 20260504033024 | 3 | 274 | 0.0 | 0.0 | 0.00 | 0.00 | 0.00 | 80 | 1013.1 |
| 20260504032521 | 3 | 282 | 0.0 | 0.0 | 0.00 | 0.00 | 0.00 | 79 | 1013.0 |
| 20260504032018 | 3 | 267 | 0.0 | 0.0 | 0.00 | 0.00 | 0.00 | 82 | 1013.0 |
| 20260504031515 | 3 | 265 | 0.0 | 0.0 | 0.00 | 0.00 | 0.00 | 85 | 1013.1 |
| 20260504031011 | 3 | 278 | 0.0 | 0.0 | 0.00 | 0.00 | 0.00 | 85 | 1013.0 |
| 20260504030508 | 3 | 284 | 0.0 | 0.0 | 0.00 | 0.00 | 0.00 | 84 | 1012.9 |
| 20260504030004 | 3 | 283 | 0.0 | 0.0 | 0.00 | 0.00 | 0.00 | 84 | 1013.0 |
| 20260504025501 | 4 | 284 | 0.0 | 0.0 | 0.00 | 0.00 | 0.00 | 83 | 1012.9 |
| 20260504024958 | 4 | 262 | 0.0 | 0.0 | 0.00 | 0.00 | 0.00 | 83 | 1013.0 |
| 20260504024455 | 4 | 246 | 0.0 | 0.0 | 0.00 | 0.00 | 0.00 | 82 | 1013.0 |
| 20260504023952 | 4 | 276 | 0.0 | 0.0 | 0.00 | 0.00 | 0.00 | 81 | 1013.0 |
| 20260504023449 | 4 | 276 | 0.0 | 0.0 | 0.00 | 0.00 | 0.00 | 82 | 1012.9 |
| 20260504022944 | 5 | 276 | 0.0 | 0.0 | 0.00 | 0.00 | 0.00 | 82 | 1013.2 |
| 20260504022441 | 5 | 276 | 0.0 | 0.0 | 0.00 | 0.00 | 0.00 | 81 | 1013.0 |
| 20260504021937 | 5 | 276 | 0.0 | 0.0 | 0.00 | 0.00 | 0.00 | 79 | 1013.1 |
| 20260504021435 | 5 | 276 | 0.0 | 0.0 | 0.00 | 0.00 | 0.00 | 80 | 1012.9 |
| 20260504020932 | 5 | 276 | 0.0 | 0.0 | 0.00 | 0.00 | 0.00 | 79 | 1013.1 |
| 20260504020428 | 5 | 276 | 0.0 | 0.0 | 0.00 | 0.00 | 0.00 | 78 | 1013.0 |
| 20260504015925 | 5 | 276 | 0.0 | 0.0 | 0.00 | 0.00 | 0.00 | 77 | 1013.0 |
| 20260504015421 | 6 | 275 | 0.0 | 0.0 | 0.00 | 0.00 | 0.00 | 74 | 1012.8 |
| 20260504014917 | 6 | 276 | 0.0 | 0.0 | 0.00 | 0.00 | 0.00 | 76 | 1012.9 |
| 20260504014413 | 6 | 284 | 0.0 | 0.0 | 0.00 | 0.00 | 0.00 | 76 | 1013.1 |
| 20260504013910 | 6 | 294 | 0.0 | 0.0 | 0.00 | 0.00 | 0.00 | 76 | 1013.0 |
| 20260504013409 | 6 | 277 | 0.0 | 0.0 | 0.00 | 0.00 | 0.00 | 73 | 1012.7 |
| 20260504012904 | 6 | 277 | 0.0 | 0.0 | 0.00 | 0.00 | 0.00 | 71 | 1012.8 |
| 20260504012403 | 7 | 275 | 0.0 | 0.0 | 0.00 | 0.00 | 0.00 | 71 | 1012.7 |
| 20260504011900 | 7 | 275 | 0.0 | 0.0 | 0.00 | 0.00 | 0.00 | 71 | 1012.7 |
| 20260504011356 | 7 | 275 | 0.0 | 0.0 | 0.00 | 0.00 | 0.00 | 71 | 1012.8 |
| 20260504010852 | 7 | 276 | 0.0 | 0.0 | 0.00 | 0.00 | 0.00 | 72 | 1012.8 |
| 20260504010348 | 7 | 277 | 0.0 | 0.0 | 0.00 | 0.00 | 0.00 | 70 | 1012.8 |
| 20260504005845 | 7 | 260 | 0.0 | 0.0 | 0.00 | 0.00 | 0.00 | 68 | 1012.7 |
| 20260504005341 | 8 | 278 | 0.0 | 0.0 | 0.00 | 0.00 | 0.00 | 64 | 1012.7 |
| 20260504004839 | 8 | 278 | 0.0 | 0.0 | 0.00 | 0.00 | 0.00 | 61 | 1012.6 |
| 20260504004337 | 8 | 278 | 0.0 | 0.0 | 0.00 | 0.00 | 0.00 | 63 | 1012.5 |
| 20260504003833 | 9 | 232 | 0.0 | 0.0 | 0.00 | 0.00 | 0.00 | 57 | 1012.6 |
| 20260504003330 | 10 | 231 | 0.0 | 0.0 | 0.00 | 0.00 | 0.00 | 52 | 1012.5 |
| 20260504002827 | 10 | 231 | 0.0 | 0.0 | 0.00 | 0.00 | 0.00 | 54 | 1012.3 |
| 20260504002323 | 10 | 231 | 0.0 | 0.0 | 0.00 | 0.00 | 0.00 | 46 | 1012.3 |
| 20260504001821 | 11 | 231 | 0.0 | 0.0 | 0.00 | 0.00 | 0.00 | 47 | 1012.3 |
| 20260504001318 | 11 | 194 | 0.0 | 0.0 | 0.00 | 0.00 | 0.00 | 47 | 1012.2 |
| 20260504000815 | 12 | 168 | 1.6 | 1.6 | 0.00 | 0.00 | 0.00 | 40 | 1012.2 |
| 20260504000312 | 12 | 167 | 3.2 | 3.2 | 0.00 | 0.00 | 0.00 | 40 | 1012.3 |
| 20260503235810 | 12 | 204 | 0.0 | 1.6 | 0.00 | 0.00 | 0.00 | 42 | 1012.1 |
| 20260503235307 | 12 | 196 | 0.0 | 1.6 | 0.00 | 0.00 | 0.00 | 39 | 1012.0 |
| 20260503234805 | 13 | 207 | 0.0 | 0.0 | 0.00 | 0.00 | 0.00 | 38 | 1012.0 |
| 20260503234302 | 13 | 191 | 1.6 | 1.6 | 0.00 | 0.00 | 0.00 | 37 | 1011.9 |
| 20260503233800 | 13 | 158 | 3.2 | 3.2 | 0.00 | 0.00 | 0.00 | 37 | 1011.9 |
| 20260503233255 | 13 | 202 | 0.0 | 0.0 | 0.00 | 0.00 | 0.00 | 37 | 1011.7 |
| 20260503232752 | 13 | 198 | 1.6 | 1.6 | 0.00 | 0.00 | 0.00 | 36 | 1011.8 |
| 20260503232250 | 14 | 36 | 4.8 | 9.7 | 0.00 | 0.00 | 0.00 | 34 | 1011.7 |
| 20260503231748 | 15 | 74 | 1.6 | 1.6 | 0.00 | 0.00 | 0.00 | 35 | 1011.8 |
| 20260503231245 | 15 | 356 | 1.6 | 1.6 | 0.00 | 0.00 | 0.00 | 35 | 1011.8 |
| 20260503230740 | 15 | 177 | 0.0 | 1.6 | 0.00 | 0.00 | 0.00 | 34 | 1011.9 |
| 20260503230238 | 15 | 247 | 0.0 | 0.0 | 0.00 | 0.00 | 0.00 | 32 | 1011.7 |
| 20260503225735 | 15 | 163 | 1.6 | 1.6 | 0.00 | 0.00 | 0.00 | 31 | 1011.6 |
| 20260503225235 | 15 | 324 | 3.2 | 4.8 | 0.00 | 0.00 | 0.00 | 31 | 1011.7 |
| 20260503224732 | 16 | 5 | 4.8 | 6.4 | 0.00 | 0.00 | 0.00 | 30 | 1011.6 |
| 20260503224230 | 16 | 321 | 6.4 | 9.7 | 0.00 | 0.00 | 0.00 | 29 | 1011.7 |
| 20260503223727 | 16 | 259 | 8.0 | 9.7 | 0.00 | 0.00 | 0.00 | 30 | 1011.9 |
| 20260503223225 | 16 | 318 | 6.4 | 6.4 | 0.00 | 0.00 | 0.00 | 29 | 1011.6 |
| 20260503222721 | 16 | 313 | 9.7 | 12.9 | 0.00 | 0.00 | 0.00 | 29 | 1011.8 |
| 20260503222219 | 16 | 310 | 3.2 | 3.2 | 0.00 | 0.00 | 0.00 | 29 | 1011.7 |
| 20260503221717 | 16 | 317 | 6.4 | 6.4 | 0.00 | 0.00 | 0.00 | 29 | 1011.8 |
| 20260503221215 | 16 | 354 | 3.2 | 4.8 | 0.00 | 0.00 | 0.00 | 29 | 1011.8 |
| 20260503220711 | 16 | 273 | 6.4 | 9.7 | 0.00 | 0.00 | 0.00 | 30 | 1012.0 |
| 20260503220208 | 16 | 0 | 9.7 | 14.5 | 0.00 | 0.00 | 0.00 | 29 | 1011.9 |
| 20260503215705 | 16 | 309 | 6.4 | 9.7 | 0.00 | 0.00 | 0.00 | 30 | 1011.7 |
| 20260503215201 | 16 | 269 | 8.0 | 11.3 | 0.00 | 0.00 | 0.00 | 30 | 1011.8 |
| 20260503214700 | 16 | 335 | 3.2 | 3.2 | 0.00 | 0.00 | 0.00 | 29 | 1011.6 |
| 20260503214155 | 17 | 328 | 3.2 | 4.8 | 0.00 | 0.00 | 0.00 | 29 | 1011.6 |
| 20260503213655 | 16 | 222 | 3.2 | 4.8 | 0.00 | 0.00 | 0.00 | 30 | 1011.7 |
| 20260503213151 | 16 | 259 | 3.2 | 4.8 | 0.00 | 0.00 | 0.00 | 32 | 1011.7 |
| 20260503212649 | 15 | 328 | 1.6 | 1.6 | 0.00 | 0.00 | 0.00 | 35 | 1011.6 |
| 20260503212146 | 16 | 335 | 1.6 | 1.6 | 0.00 | 0.00 | 0.00 | 31 | 1011.6 |
| 20260503211644 | 16 | 185 | 3.2 | 4.8 | 0.00 | 0.00 | 0.00 | 30 | 1011.6 |
| 20260503211139 | 16 | 283 | 3.2 | 4.8 | 0.00 | 0.00 | 0.00 | 31 | 1011.7 |
| 20260503210635 | 16 | 272 | 6.4 | 6.4 | 0.00 | 0.00 | 0.00 | 30 | 1011.6 |
| 20260503210132 | 16 | 16 | 3.2 | 4.8 | 0.00 | 0.00 | 0.00 | 29 | 1011.7 |
| 20260503205628 | 16 | 0 | 4.8 | 6.4 | 0.00 | 0.00 | 0.00 | 31 | 1011.9 |
| 20260503205124 | 16 | 322 | 8.0 | 11.3 | 0.00 | 0.00 | 0.00 | 31 | 1011.8 |
| 20260503204621 | 15 | 351 | 4.8 | 4.8 | 0.00 | 0.00 | 0.00 | 31 | 1011.7 |
| 20260503204119 | 16 | 306 | 6.4 | 6.4 | 0.00 | 0.00 | 0.00 | 30 | 1011.7 |
| 20260503203616 | 16 | 348 | 6.4 | 6.4 | 0.00 | 0.00 | 0.00 | 30 | 1011.7 |
| 20260503203113 | 16 | 319 | 3.2 | 3.2 | 0.00 | 0.00 | 0.00 | 32 | 1011.6 |
| 20260503202610 | 16 | 314 | 9.7 | 12.9 | 0.00 | 0.00 | 0.00 | 31 | 1011.9 |
| 20260503202108 | 16 | 224 | 4.8 | 9.7 | 0.00 | 0.00 | 0.00 | 29 | 1011.8 |
| 20260503201606 | 16 | 296 | 12.9 | 14.5 | 0.00 | 0.00 | 0.00 | 31 | 1011.9 |
| 20260503201103 | 15 | 29 | 8.0 | 16.1 | 0.00 | 0.00 | 0.00 | 31 | 1012.0 |
| 20260503200559 | 15 | 358 | 1.6 | 3.2 | 0.00 | 0.00 | 0.00 | 31 | 1012.0 |
| 20260503200056 | 15 | 324 | 3.2 | 4.8 | 0.00 | 0.00 | 0.00 | 33 | 1012.0 |
| 20260503195553 | 15 | 61 | 11.3 | 16.1 | 0.00 | 0.00 | 0.00 | 31 | 1012.1 |
| 20260503195050 | 15 | 251 | 4.8 | 6.4 | 0.00 | 0.00 | 0.00 | 32 | 1012.1 |
| 20260503194547 | 15 | 214 | 3.2 | 3.2 | 0.00 | 0.00 | 0.00 | 32 | 1012.3 |
| 20260503194047 | 15 | 22 | 6.4 | 9.7 | 0.00 | 0.00 | 0.00 | 31 | 1012.5 |
| 20260503193544 | 15 | 20 | 4.8 | 11.3 | 0.00 | 0.00 | 0.00 | 31 | 1012.3 |
| 20260503193044 | 15 | 315 | 4.8 | 6.4 | 0.00 | 0.00 | 0.00 | 31 | 1012.5 |
| 20260503192541 | 15 | 109 | 4.8 | 6.4 | 0.00 | 0.00 | 0.00 | 32 | 1012.4 |
| 20260503192037 | 15 | 240 | 4.8 | 6.4 | 0.00 | 0.00 | 0.00 | 32 | 1012.5 |
| 20260503191533 | 15 | 23 | 11.3 | 12.9 | 0.00 | 0.00 | 0.00 | 31 | 1012.3 |
| 20260503191030 | 15 | 21 | 3.2 | 4.8 | 0.00 | 0.00 | 0.00 | 32 | 1012.5 |
| 20260503190527 | 15 | 174 | 3.2 | 3.2 | 0.00 | 0.00 | 0.00 | 33 | 1012.5 |
| 20260503190024 | 14 | 301 | 6.4 | 6.4 | 0.00 | 0.00 | 0.00 | 33 | 1012.8 |
| 20260503185521 | 14 | 322 | 9.7 | 12.9 | 0.00 | 0.00 | 0.00 | 32 | 1012.7 |
| 20260503185021 | 14 | 313 | 1.6 | 3.2 | 0.00 | 0.00 | 0.00 | 30 | 1012.8 |
| 20260503184517 | 14 | 317 | 3.2 | 4.8 | 0.00 | 0.00 | 0.00 | 31 | 1012.7 |
| 20260503184014 | 15 | 51 | 3.2 | 3.2 | 0.00 | 0.00 | 0.00 | 32 | 1012.9 |
| 20260503183510 | 15 | 309 | 4.8 | 9.7 | 0.00 | 0.00 | 0.00 | 31 | 1012.8 |
| 20260503183008 | 15 | 293 | 6.4 | 11.3 | 0.00 | 0.00 | 0.00 | 33 | 1012.9 |
| 20260503182507 | 15 | 320 | 4.8 | 4.8 | 0.00 | 0.00 | 0.00 | 32 | 1012.8 |
| 20260503182004 | 15 | 277 | 3.2 | 6.4 | 0.00 | 0.00 | 0.00 | 34 | 1012.9 |
| 20260503181500 | 15 | 282 | 6.4 | 6.4 | 0.00 | 0.00 | 0.00 | 32 | 1013.1 |
| 20260503180956 | 15 | 259 | 3.2 | 3.2 | 0.00 | 0.00 | 0.00 | 31 | 1013.0 |
| 20260503180454 | 14 | 273 | 3.2 | 3.2 | 0.00 | 0.00 | 0.00 | 32 | 1012.9 |
| 20260503175951 | 14 | 7 | 3.2 | 3.2 | 0.00 | 0.00 | 0.00 | 30 | 1013.0 |
| 20260503175449 | 14 | 53 | 3.2 | 4.8 | 0.00 | 0.00 | 0.00 | 31 | 1013.1 |
| 20260503174945 | 14 | 339 | 4.8 | 4.8 | 0.00 | 0.00 | 0.00 | 31 | 1012.9 |
| 20260503174443 | 14 | 276 | 8.0 | 11.3 | 0.00 | 0.00 | 0.00 | 32 | 1013.2 |
| 20260503173938 | 13 | 327 | 9.7 | 12.9 | 0.00 | 0.00 | 0.00 | 32 | 1013.2 |
| 20260503173434 | 13 | 313 | 8.0 | 11.3 | 0.00 | 0.00 | 0.00 | 31 | 1013.3 |
| 20260503172931 | 14 | 263 | 6.4 | 12.9 | 0.00 | 0.00 | 0.00 | 32 | 1013.4 |
| 20260503172428 | 13 | 345 | 6.4 | 6.4 | 0.00 | 0.00 | 0.00 | 32 | 1013.3 |
| 20260503171925 | 13 | 17 | 14.5 | 20.9 | 0.00 | 0.00 | 0.00 | 32 | 1013.2 |
| 20260503171421 | 13 | 115 | 3.2 | 4.8 | 0.00 | 0.00 | 0.00 | 33 | 1013.4 |
| 20260503170919 | 13 | 72 | 3.2 | 6.4 | 0.00 | 0.00 | 0.00 | 36 | 1013.3 |
| 20260503170415 | 13 | 42 | 4.8 | 4.8 | 0.00 | 0.00 | 0.00 | 31 | 1013.4 |
| 20260503150807 | 11 | 266 | 6.4 | 6.4 | 0.00 | 0.00 | 0.00 | 36 | 1014.8 |
| 20260503150303 | 11 | 55 | 3.2 | 6.4 | 0.00 | 0.00 | 0.00 | 38 | 1014.5 |
| 20260503140228 | 9 | 263 | 4.8 | 4.8 | 0.00 | 0.00 | 0.00 | 41 | 1014.9 |
| 20260503131157 | 8 | 295 | 9.7 | 16.1 | 0.00 | 0.00 | 0.00 | 41 | 1015.1 |
| 20260503130655 | 8 | 302 | 6.4 | 9.7 | 0.00 | 0.00 | 0.00 | 42 | 1014.9 |
| 20260503130152 | 8 | 238 | 3.2 | 3.2 | 0.00 | 0.00 | 0.00 | 44 | 1014.8 |
| 20260503120118 | 6 | 317 | 6.4 | 6.4 | 0.00 | 0.00 | 0.00 | 54 | 1014.7 |
| 20260503110545 | 3 | 72 | 0.0 | 0.0 | 0.00 | 0.00 | 0.00 | 65 | 1014.1 |